Location: Cedarville Mobile Home Park
(38.5815°N, 75.0860°W)
Time: 01:42:17
(UTC+00:00)

ACS3 Solar Sail - Pass Details

Date: 15 October 2024
Orbit: 902 x 997 km, 97.3° (Epoch: 18 November)

Event Time Altitude Azimuth Distance (km) Brightness Sun altitude
Exits shadow 01:01:40 13° 13° (NNE) 2,402 3.8 -31.6°
Drops below altitude 10° 01:02:24 10° 9° (N) 2,643 4.1 -31.8°
Sets 01:05:08 0° 359° (N) 3,626 5.0 -32.3°
